Time,TemperatureF,DewpointF,PressureIn,WindDirection,WindDirectionDegrees,WindSpeedMPH,WindSpeedGustMPH,Humidity,HourlyPrecipIn,Conditions,Clouds,dailyrainin,SoftwareType,DateUTC
2013-05-27 00:02:00,73.0,63.0,29.91,South,180,4.0,8.0,70,-99.99,,,-99.99,,2013-05-27 05:02:00,
2013-05-27 00:12:00,73.0,63.0,29.91,South,180,6.0,10.0,71,-99.99,,,-99.99,,2013-05-27 05:12:00,
2013-05-27 00:22:00,73.0,63.0,29.91,South,180,5.0,8.0,70,-99.99,,,-99.99,,2013-05-27 05:22:00,
2013-05-27 00:32:00,73.0,63.0,29.94,SSE,157,3.0,6.0,70,-99.99,,,-99.99,,2013-05-27 05:32:00,
2013-05-27 00:42:00,72.0,63.0,29.94,SSE,157,2.0,6.0,72,-99.99,,,-99.99,,2013-05-27 05:42:00,
2013-05-27 00:52:00,72.0,63.0,29.94,ESE,112,1.0,4.0,72,-99.99,,,-99.99,,2013-05-27 05:52:00,
2013-05-27 01:01:00,72.0,63.0,29.94,North,0,1.0,3.0,72,-99.99,,,-99.99,,2013-05-27 06:01:00,
2013-05-27 01:11:00,72.0,63.0,29.97,ENE,67,3.0,4.0,75,-99.99,,,-99.99,,2013-05-27 06:11:00,
2013-05-27 01:21:00,71.0,63.0,29.97,North,0,2.0,4.0,75,-99.99,,,-99.99,,2013-05-27 06:21:00,
2013-05-27 01:32:00,71.0,63.0,29.97,ENE,67,5.0,6.0,75,-99.99,,,-99.99,,2013-05-27 06:32:00,
2013-05-27 01:42:00,69.0,60.0,29.97,NE,45,9.0,16.0,75,-99.99,,,-99.99,,2013-05-27 06:42:00,
2013-05-27 01:52:00,68.0,59.0,29.97,NNE,22,11.0,18.0,75,-99.99,,,-99.99,,2013-05-27 06:52:00,
2013-05-27 02:02:00,67.0,59.0,29.97,ENE,67,10.0,17.0,75,-99.99,,,-99.99,,2013-05-27 07:02:00,
2013-05-27 02:11:00,66.0,58.0,29.97,ENE,67,6.0,13.0,77,-99.99,,,-99.99,,2013-05-27 07:11:00,
2013-05-27 02:21:00,65.0,58.0,29.97,North,0,3.0,6.0,78,-99.99,,,-99.99,,2013-05-27 07:21:00,
2013-05-27 02:32:00,65.0,58.0,29.97,North,0,6.0,10.0,78,-99.99,,,-99.99,,2013-05-27 07:32:00,
2013-05-27 02:41:00,65.0,58.0,29.97,ESE,112,5.0,12.0,79,-99.99,,,-99.99,,2013-05-27 07:41:00,
2013-05-27 02:52:00,65.0,58.0,29.94,ESE,112,7.0,12.0,80,-99.99,,,-99.99,,2013-05-27 07:52:00,
2013-05-27 03:02:00,64.0,59.0,29.94,ESE,112,5.0,9.0,82,-99.99,,,-99.99,,2013-05-27 08:02:00,
2013-05-27 03:11:00,64.0,59.0,29.94,ESE,112,4.0,7.0,83,-99.99,,,-99.99,,2013-05-27 08:11:00,
2013-05-27 03:22:00,64.0,59.0,29.94,ESE,112,4.0,7.0,84,-99.99,,,-99.99,,2013-05-27 08:22:00,
2013-05-27 03:32:00,64.0,59.0,29.94,ESE,112,4.0,8.0,84,-99.99,,,-99.99,,2013-05-27 08:32:00,
2013-05-27 03:42:00,64.0,59.0,29.94,ESE,112,4.0,7.0,84,-99.99,,,-99.99,,2013-05-27 08:42:00,
2013-05-27 03:52:00,64.0,59.0,29.91,ESE,112,4.0,7.0,84,-99.99,,,-99.99,,2013-05-27 08:52:00,
2013-05-27 04:02:00,64.0,59.0,29.91,SE,135,5.0,7.0,83,-99.99,,,-99.99,,2013-05-27 09:02:00,
2013-05-27 04:11:00,65.0,59.0,29.91,ESE,112,4.0,7.0,82,-99.99,,,-99.99,,2013-05-27 09:11:00,
2013-05-27 04:21:00,65.0,59.0,29.91,ESE,112,4.0,6.0,82,-99.99,,,-99.99,,2013-05-27 09:21:00,
2013-05-27 04:33:00,65.0,58.0,29.91,ESE,112,6.0,10.0,79,-99.99,,,-99.99,,2013-05-27 09:33:00,
2013-05-27 04:42:00,65.0,58.0,29.88,ESE,112,5.0,9.0,78,-99.99,,,-99.99,,2013-05-27 09:42:00,
2013-05-27 04:52:00,65.0,58.0,29.88,SE,135,5.0,8.0,78,-99.99,,,-99.99,,2013-05-27 09:52:00,
2013-05-27 05:02:00,66.0,58.0,29.88,SE,135,3.0,7.0,77,-99.99,,,-99.99,,2013-05-27 10:02:00,
2013-05-27 05:12:00,66.0,58.0,29.88,SE,135,5.0,8.0,76,-99.99,,,-99.99,,2013-05-27 10:12:00,
2013-05-27 05:22:00,66.0,59.0,29.88,SSE,157,4.0,8.0,76,-99.99,,,-99.99,,2013-05-27 10:22:00,
2013-05-27 05:32:00,67.0,59.0,29.88,SE,135,6.0,10.0,75,-99.99,,,-99.99,,2013-05-27 10:32:00,
2013-05-27 05:42:00,67.0,59.0,29.88,SSE,157,5.0,11.0,75,-99.99,,,-99.99,,2013-05-27 10:42:00,
2013-05-27 05:52:00,67.0,59.0,29.88,SE,135,5.0,9.0,75,-99.99,,,-99.99,,2013-05-27 10:52:00,
2013-05-27 06:02:00,67.0,58.0,29.88,SE,135,5.0,9.0,75,-99.99,,,-99.99,,2013-05-27 11:02:00,
2013-05-27 06:11:00,67.0,59.0,29.88,SE,135,4.0,9.0,75,-99.99,,,-99.99,,2013-05-27 11:11:00,
2013-05-27 06:22:00,66.0,59.0,29.85,South,180,4.0,7.0,79,-99.99,,,-99.99,,2013-05-27 11:22:00,
2013-05-27 06:32:00,66.0,60.0,29.85,SSE,157,7.0,11.0,81,-99.99,,,-99.99,,2013-05-27 11:32:00,
2013-05-27 06:42:00,67.0,60.0,29.85,SSE,157,7.0,12.0,79,-99.99,,,-99.99,,2013-05-27 11:42:00,
2013-05-27 06:52:00,67.0,61.0,29.85,SSE,157,6.0,11.0,79,-99.99,,,-99.99,,2013-05-27 11:52:00,
2013-05-27 07:01:00,68.0,61.0,29.85,SSE,157,6.0,11.0,79,-99.99,,,-99.99,,2013-05-27 12:01:00,
2013-05-27 07:11:00,68.0,61.0,29.85,SSE,157,7.0,12.0,79,-99.99,,,-99.99,,2013-05-27 12:11:00,
2013-05-27 07:21:00,68.0,62.0,29.85,SSE,157,7.0,11.0,79,-99.99,,,-99.99,,2013-05-27 12:21:00,
2013-05-27 07:32:00,68.0,62.0,29.85,SSE,157,6.0,12.0,80,-99.99,,,-99.99,,2013-05-27 12:32:00,
2013-05-27 07:42:00,69.0,62.0,29.85,SSE,157,7.0,14.0,80,-99.99,,,-99.99,,2013-05-27 12:42:00,
2013-05-27 07:52:00,69.0,63.0,29.85,SSE,157,8.0,16.0,79,-99.99,,,-99.99,,2013-05-27 12:52:00,
2013-05-27 08:01:00,70.0,63.0,29.85,South,180,10.0,14.0,80,-99.99,,,-99.99,,2013-05-27 13:01:00,
2013-05-27 08:11:00,70.0,63.0,29.85,South,180,8.0,13.0,80,-99.99,,,-99.99,,2013-05-27 13:11:00,
2013-05-27 08:21:00,70.0,63.0,29.85,South,180,8.0,12.0,80,-99.99,,,-99.99,,2013-05-27 13:21:00,
2013-05-27 08:32:00,70.0,63.0,29.85,South,180,10.0,14.0,81,-99.99,,,-99.99,,2013-05-27 13:32:00,
2013-05-27 08:41:00,70.0,64.0,29.85,South,180,8.0,13.0,81,-99.99,,,-99.99,,2013-05-27 13:41:00,
2013-05-27 08:52:00,70.0,64.0,29.83,South,180,10.0,16.0,81,-99.99,,,-99.99,,2013-05-27 13:52:00,
2013-05-27 09:01:00,70.0,64.0,29.83,SSE,157,9.0,15.0,82,-99.99,,,-99.99,,2013-05-27 14:01:00,
2013-05-27 09:11:00,70.0,64.0,29.83,South,180,10.0,17.0,82,-99.99,,,-99.99,,2013-05-27 14:11:00,
2013-05-27 09:21:00,70.0,64.0,29.83,SSE,157,11.0,14.0,82,-99.99,,,-99.99,,2013-05-27 14:21:00,
2013-05-27 09:32:00,70.0,64.0,29.83,South,180,8.0,13.0,82,-99.99,,,-99.99,,2013-05-27 14:32:00,
2013-05-27 09:42:00,70.0,64.0,29.83,South,180,7.0,12.0,82,-99.99,,,-99.99,,2013-05-27 14:42:00,
2013-05-27 09:51:00,70.0,65.0,29.83,South,180,7.0,12.0,82,-99.99,,,-99.99,,2013-05-27 14:51:00,
2013-05-27 10:01:00,70.0,65.0,29.83,South,180,7.0,13.0,82,-99.99,,,-99.99,,2013-05-27 15:01:00,
2013-05-27 10:11:00,70.0,65.0,29.83,South,180,6.0,11.0,82,-99.99,,,-99.99,,2013-05-27 15:11:00,
2013-05-27 10:21:00,70.0,65.0,29.83,South,180,5.0,10.0,83,-99.99,,,-99.99,,2013-05-27 15:21:00,
2013-05-27 10:33:00,70.0,65.0,29.85,SSW,202,4.0,8.0,83,-99.99,,,-99.99,,2013-05-27 15:33:00,
2013-05-27 10:43:00,71.0,65.0,29.85,South,180,5.0,8.0,84,-99.99,,,-99.99,,2013-05-27 15:43:00,
2013-05-27 10:53:00,71.0,65.0,29.85,South,180,6.0,8.0,83,-99.99,,,-99.99,,2013-05-27 15:53:00,
2013-05-27 11:03:00,71.0,66.0,29.85,South,180,5.0,8.0,84,-99.99,,,-99.99,,2013-05-27 16:03:00,
2013-05-27 11:12:00,71.0,66.0,29.83,South,180,5.0,8.0,84,-99.99,,,-99.99,,2013-05-27 16:12:00,
2013-05-27 11:23:00,71.0,66.0,29.83,SSE,157,5.0,9.0,83,-99.99,,,-99.99,,2013-05-27 16:23:00,
2013-05-27 11:33:00,71.0,66.0,29.85,South,180,3.0,6.0,83,-99.99,,,-99.99,,2013-05-27 16:33:00,
2013-05-27 11:42:00,72.0,66.0,29.85,East,90,0.0,0.0,83,-99.99,,,-99.99,,2013-05-27 16:42:00,
2013-05-27 11:52:00,71.0,66.0,29.88,NW,315,4.0,6.0,84,-99.99,,,-99.99,,2013-05-27 16:52:00,
2013-05-27 12:02:00,69.0,63.0,29.88,East,90,12.0,20.0,81,-99.99,,,-99.99,,2013-05-27 17:02:00,
2013-05-27 12:11:00,65.0,62.0,29.88,NNE,22,7.0,12.0,87,-99.99,,,-99.99,,2013-05-27 17:11:00,
2013-05-27 12:22:00,65.0,61.0,29.88,NNW,337,9.0,15.0,87,-99.99,,,-99.99,,2013-05-27 17:22:00,
2013-05-27 12:32:00,64.0,61.0,29.88,NNE,22,5.0,9.0,90,-99.99,,,-99.99,,2013-05-27 17:32:00,
2013-05-27 12:43:00,64.0,61.0,29.91,East,90,8.0,14.0,91,-99.99,,,-99.99,,2013-05-27 17:43:00,
2013-05-27 12:52:00,63.0,61.0,29.94,NNW,337,12.0,22.0,93,-99.99,,,-99.99,,2013-05-27 17:52:00,
2013-05-27 13:02:00,62.0,60.0,29.91,ENE,67,4.0,10.0,95,-99.99,,,-99.99,,2013-05-27 18:02:00,
2013-05-27 13:11:00,62.0,61.0,29.91,ENE,67,6.0,10.0,96,-99.99,,,-99.99,,2013-05-27 18:11:00,
2013-05-27 13:22:00,62.0,61.0,29.91,NE,45,6.0,10.0,96,-99.99,,,-99.99,,2013-05-27 18:22:00,
2013-05-27 13:32:00,62.0,61.0,29.88,ENE,67,4.0,8.0,97,-99.99,,,-99.99,,2013-05-27 18:32:00,
2013-05-27 13:42:00,62.0,61.0,29.91,SSE,157,3.0,6.0,97,-99.99,,,-99.99,,2013-05-27 18:42:00,
2013-05-27 13:52:00,62.0,61.0,29.88,North,0,4.0,8.0,97,-99.99,,,-99.99,,2013-05-27 18:52:00,
2013-05-27 14:01:00,62.0,61.0,29.88,ESE,112,5.0,9.0,97,-99.99,,,-99.99,,2013-05-27 19:01:00,
2013-05-27 14:11:00,62.0,61.0,29.85,SE,135,4.0,7.0,97,-99.99,,,-99.99,,2013-05-27 19:11:00,
2013-05-27 14:21:00,63.0,62.0,29.85,ESE,112,6.0,11.0,97,-99.99,,,-99.99,,2013-05-27 19:21:00,
2013-05-27 14:32:00,63.0,62.0,29.83,ESE,112,6.0,10.0,97,-99.99,,,-99.99,,2013-05-27 19:32:00,
2013-05-27 14:42:00,63.0,62.0,29.83,ESE,112,7.0,12.0,97,-99.99,,,-99.99,,2013-05-27 19:42:00,
2013-05-27 14:52:00,63.0,63.0,29.80,SE,135,7.0,11.0,97,-99.99,,,-99.99,,2013-05-27 19:52:00,
2013-05-27 15:01:00,64.0,63.0,29.80,SE,135,8.0,13.0,97,-99.99,,,-99.99,,2013-05-27 20:01:00,
2013-05-27 15:11:00,64.0,63.0,29.77,SE,135,8.0,14.0,97,-99.99,,,-99.99,,2013-05-27 20:11:00,
2013-05-27 15:22:00,65.0,63.0,29.74,SE,135,10.0,20.0,96,-99.99,,,-99.99,,2013-05-27 20:22:00,
2013-05-27 15:32:00,65.0,63.0,29.71,SSE,157,11.0,19.0,94,-99.99,,,-99.99,,2013-05-27 20:32:00,
2013-05-27 15:42:00,67.0,63.0,29.71,SSE,157,11.0,18.0,89,-99.99,,,-99.99,,2013-05-27 20:42:00,
2013-05-27 15:52:00,68.0,64.0,29.71,SSE,157,9.0,14.0,87,-99.99,,,-99.99,,2013-05-27 20:52:00,
2013-05-27 16:01:00,69.0,64.0,29.71,SSE,157,9.0,13.0,85,-99.99,,,-99.99,,2013-05-27 21:01:00,
2013-05-27 16:12:00,70.0,64.0,29.71,SSE,157,11.0,17.0,81,-99.99,,,-99.99,,2013-05-27 21:12:00,
2013-05-27 16:21:00,71.0,64.0,29.71,SSE,157,11.0,17.0,78,-99.99,,,-99.99,,2013-05-27 21:21:00,
2013-05-27 16:33:00,72.0,64.0,29.71,SSE,157,9.0,14.0,76,-99.99,,,-99.99,,2013-05-27 21:33:00,
2013-05-27 16:43:00,73.0,65.0,29.71,South,180,11.0,19.0,76,-99.99,,,-99.99,,2013-05-27 21:43:00,
2013-05-27 16:53:00,73.0,66.0,29.71,SSE,157,10.0,14.0,76,-99.99,,,-99.99,,2013-05-27 21:53:00,
2013-05-27 17:02:00,74.0,66.0,29.71,SSE,157,10.0,18.0,76,-99.99,,,-99.99,,2013-05-27 22:02:00,
2013-05-27 17:12:00,74.0,66.0,29.71,SSE,157,9.0,18.0,76,-99.99,,,-99.99,,2013-05-27 22:12:00,
2013-05-27 17:22:00,74.0,66.0,29.71,SSE,157,12.0,19.0,76,-99.99,,,-99.99,,2013-05-27 22:22:00,
2013-05-27 17:32:00,75.0,67.0,29.71,SSE,157,10.0,17.0,76,-99.99,,,-99.99,,2013-05-27 22:32:00,
2013-05-27 17:42:00,75.0,67.0,29.71,SSE,157,9.0,16.0,76,-99.99,,,-99.99,,2013-05-27 22:42:00,
2013-05-27 17:52:00,75.0,67.0,29.71,SE,135,8.0,13.0,77,-99.99,,,-99.99,,2013-05-27 22:52:00,
2013-05-27 18:02:00,75.0,67.0,29.68,SE,135,7.0,13.0,77,-99.99,,,-99.99,,2013-05-27 23:02:00,
2013-05-27 18:12:00,75.0,67.0,29.68,SE,135,6.0,9.0,76,-99.99,,,-99.99,,2013-05-27 23:12:00,
2013-05-27 18:22:00,76.0,68.0,29.71,SSE,157,6.0,11.0,76,-99.99,,,-99.99,,2013-05-27 23:22:00,
2013-05-27 18:32:00,76.0,67.0,29.71,SSE,157,8.0,11.0,75,-99.99,,,-99.99,,2013-05-27 23:32:00,
2013-05-27 18:42:00,76.0,67.0,29.71,SE,135,6.0,11.0,76,-99.99,,,-99.99,,2013-05-27 23:42:00,
2013-05-27 18:52:00,76.0,68.0,29.71,SE,135,4.0,7.0,76,-99.99,,,-99.99,,2013-05-27 23:52:00,
2013-05-27 19:01:00,76.0,68.0,29.71,SSE,157,4.0,9.0,76,-99.99,,,-99.99,,2013-05-28 00:01:00,
2013-05-27 19:11:00,75.0,68.0,29.71,SSE,157,4.0,6.0,78,-99.99,,,-99.99,,2013-05-28 00:11:00,
2013-05-27 19:21:00,75.0,68.0,29.68,SE,135,5.0,9.0,78,-99.99,,,-99.99,,2013-05-28 00:21:00,
2013-05-27 19:31:00,74.0,68.0,29.68,SE,135,4.0,7.0,79,-99.99,,,-99.99,,2013-05-28 00:31:00,
2013-05-27 19:41:00,74.0,68.0,29.68,SE,135,4.0,8.0,80,-99.99,,,-99.99,,2013-05-28 00:41:00,
2013-05-27 19:52:00,74.0,68.0,29.68,SE,135,4.0,6.0,80,-99.99,,,-99.99,,2013-05-28 00:52:00,
2013-05-27 20:01:00,74.0,68.0,29.68,SE,135,2.0,6.0,82,-99.99,,,-99.99,,2013-05-28 01:01:00,
2013-05-27 20:11:00,73.0,68.0,29.68,ESE,112,2.0,4.0,83,-99.99,,,-99.99,,2013-05-28 01:11:00,
2013-05-27 20:21:00,73.0,68.0,29.68,ESE,112,2.0,4.0,84,-99.99,,,-99.99,,2013-05-28 01:21:00,
2013-05-27 20:32:00,73.0,68.0,29.68,ESE,112,2.0,4.0,84,-99.99,,,-99.99,,2013-05-28 01:32:00,
2013-05-27 20:41:00,72.0,67.0,29.71,ESE,112,2.0,4.0,85,-99.99,,,-99.99,,2013-05-28 01:41:00,
2013-05-27 20:52:00,72.0,67.0,29.71,ESE,112,1.0,4.0,86,-99.99,,,-99.99,,2013-05-28 01:52:00,
2013-05-27 21:02:00,72.0,67.0,29.71,SE,135,1.0,4.0,86,-99.99,,,-99.99,,2013-05-28 02:02:00,
2013-05-27 21:11:00,72.0,67.0,29.71,SSE,157,3.0,4.0,85,-99.99,,,-99.99,,2013-05-28 02:11:00,
2013-05-27 21:21:00,72.0,66.0,29.71,South,180,4.0,7.0,82,-99.99,,,-99.99,,2013-05-28 02:21:00,
2013-05-27 21:32:00,73.0,66.0,29.71,South,180,4.0,7.0,78,-99.99,,,-99.99,,2013-05-28 02:32:00,
2013-05-27 21:42:00,74.0,65.0,29.71,South,180,5.0,8.0,74,-99.99,,,-99.99,,2013-05-28 02:42:00,
2013-05-27 21:51:00,74.0,65.0,29.71,South,180,5.0,7.0,74,-99.99,,,-99.99,,2013-05-28 02:51:00,
2013-05-27 22:01:00,74.0,65.0,29.71,South,180,5.0,8.0,73,-99.99,,,-99.99,,2013-05-28 03:01:00,
2013-05-27 22:11:00,74.0,65.0,29.71,South,180,5.0,8.0,72,-99.99,,,-99.99,,2013-05-28 03:11:00,
2013-05-27 22:21:00,74.0,65.0,29.74,South,180,5.0,8.0,71,-99.99,,,-99.99,,2013-05-28 03:21:00,
2013-05-27 22:33:00,74.0,65.0,29.74,South,180,6.0,8.0,72,-99.99,,,-99.99,,2013-05-28 03:33:00,
2013-05-27 22:43:00,74.0,64.0,29.74,South,180,6.0,8.0,72,-99.99,,,-99.99,,2013-05-28 03:43:00,
2013-05-27 22:53:00,74.0,64.0,29.74,South,180,6.0,9.0,72,-99.99,,,-99.99,,2013-05-28 03:53:00,
2013-05-27 23:02:00,74.0,64.0,29.74,South,180,6.0,8.0,72,-99.99,,,-99.99,,2013-05-28 04:02:00,
2013-05-27 23:12:00,74.0,64.0,29.77,South,180,7.0,11.0,71,-99.99,,,-99.99,,2013-05-28 04:12:00,
2013-05-27 23:22:00,74.0,64.0,29.74,South,180,8.0,11.0,71,-99.99,,,-99.99,,2013-05-28 04:22:00,
2013-05-27 23:33:00,74.0,64.0,29.74,South,180,7.0,12.0,71,-99.99,,,-99.99,,2013-05-28 04:33:00,
2013-05-27 23:42:00,74.0,64.0,29.74,South,180,7.0,10.0,72,-99.99,,,-99.99,,2013-05-28 04:42:00,
2013-05-27 23:52:00,74.0,64.0,29.74,South,180,7.0,11.0,72,-99.99,,,-99.99,,2013-05-28 04:52:00,